Location: Barcelona
(41.3829°N, 2.1774°E)
Time: 12:12:37
(UTC+00:00)

ISS - Pass Details

Date: 06 May 2025
Orbit: 416 x 419 km, 51.6° (Epoch: 14 May)

Event Time Altitude Azimuth Distance (km) Brightness Sun altitude
Exits shadow 02:35:01 - 311° (NW) 2,217 -0.1 -20.3°
Reaches altitude 10° 02:37:07 10° 327° (NNW) 1,496 -0.8 -20.1°
Maximum altitude 02:39:41 20° 17° (NNE) 1,028 -1.1 -19.7°
Drops below altitude 10° 02:42:16 10° 67° (ENE) 1,494 0.0 -19.4°
Sets 02:44:44 0° 85° (E) 2,356 0.8 -19.1°
